Miscellaneous Local Product
Issued by NWS Hastings, NE

Home | Current Version | Previous Version | Text Only | Print | Product List | Glossary Off
Versions: 1 2 3 4 5 6 7 8 9 10 11 12 13 14 15 16 17 18 19 20 21 22 23 24 25 26 27 28 29 30 31 32 33 34 35 36 37 38 39 40 41 42 43 44 45 46 47 48 49 50

000
AXUS43 KGID 050902
MISGRI

GID CWA HOURLY WEATHER ROUNDUP
NATIONAL WEATHER SERVICE HASTINGS NE
400 AM CDT THU MAY 05 2016

NOTE: "FAIR" INDICATES FEW OR NO CLOUDS BELOW 12,000 FEET WITH NO
SIGNIFICANT WEATHER AND/OR OBSTRUCTIONS TO VISIBILITY.

...SOUTH CENTRAL NEBRASKA...

CITY           SKY/WX    TMP DP  RH WIND       PRES   REMARKS
GRAND ISLAND   CLEAR     43  36  76 W3        30.08R
HASTINGS       CLEAR     45  37  73 W5        30.07S
KEARNEY        PTCLDY    45  37  76 W7        30.09S
ORD            CLEAR     38  36  92 W3        30.07R
YORK           CLEAR     41  37  87 CALM      30.06S
AURORA         PTCLDY    43  35  72 W3        30.07R
LEXINGTON      CLEAR     42  38  88 CALM      30.10R
HOLDREGE       CLEAR     46  37  70 CALM      30.09S
HEBRON         CLEAR     42  38  83 CALM      30.06R

...NEBRASKA PANHANDLE...

CITY           SKY/WX    TMP DP  RH WIND       PRES   REMARKS
CHADRON        CLEAR     47  41  80 VRB3      30.01F
ALLIANCE       CLEAR     45  40  82 S5        30.06F
SCOTTSBLUFF    CLEAR     49  40  71 E8        30.07F
SIDNEY         CLEAR     47  40  76 SW12      30.10F

...WESTERN AND NORTH CENTRAL NEBRASKA...

CITY           SKY/WX    TMP DP  RH WIND       PRES   REMARKS
VALENTINE      CLEAR     48  37  65 W3        30.06F
AINSWORTH      CLEAR     43  37  78 S6        30.07S
ONEILL         CLEAR     46  45  95 SW5       30.06S
BROKEN BOW     PTCLDY    39  36  89 CALM      30.08S
IMPERIAL       CLEAR     49  42  77 CALM      30.09F
NORTH PLATTE   CLEAR     41  37  86 CALM      30.09S
MCCOOK         CLEAR     47  40  76 CALM      30.09S

...EASTERN NEBRASKA...

CITY           SKY/WX    TMP DP  RH WIND       PRES   REMARKS
NORFOLK        CLEAR     44  35  70 CALM      30.04S
SO SIOUX CITY  CLEAR     43  36  76 NW3       30.03S
TEKAMAH        CLEAR     46  39  76 CALM      30.02S
COLUMBUS       CLEAR     41  30  65 NW3       30.05S
ALBION         CLEAR     39  35  85 NW3       30.06S
OMAHA EPPLEY   CLEAR     47  42  83 N3        30.02S
OFFUTT AFB     CLEAR     46  42  86 NW2       30.01S
MILLARD        CLEAR     46  42  84 CALM      30.02S
LINCOLN        CLEAR     45  39  79 N3        30.05S
NEBRASKA CITY  CLEAR     49  38  64 NW8       30.01F
BEATRICE       CLEAR     42  39  89 CALM      30.05R
FALLS CITY     CLEAR     44  39  82 W5        30.01S

...NORTHERN KANSAS...

CITY           SKY/WX    TMP DP  RH WIND       PRES   REMARKS
GOODLAND       CLEAR     53  42  66 SW9       30.10F
HILL CITY      CLEAR     44  41  89 NW3       30.10S
NORTON         SUNNY     45  37  76 SW6       30.09R
PHILLIPSBURG   CLEAR     43  39  87 NW7       30.08F
SMITH CENTER   CLEAR     46  36  66 CALM      30.08S
BELOIT         CLEAR     41  37  87 CALM      30.06S
HAYS           CLEAR     43  34  70 W7        30.08S
RUSSELL        CLEAR     48  41  76 SW6       30.07S
CONCORDIA      CLEAR     45  37  73 W7        30.06S
SALINA         CLEAR     46  39  76 CALM      30.06S
TOPEKA         CLEAR     48  43  82 W3        30.03R



USA.gov is the U.S. government's official web portal to all federal, state and local government web resources and services.